DW5057 Weather Reports


Display with metric or nautical units.
time (UTC)temp
F
wind
direction
speed
MPH
gust
MPH
rain 1hr
in
rain 24hr
in
rain mn
in
humidity
%
barometer
mb
20260902103526 73 44 1.0 3.0 0.00 0.55 0.51 92 1017.9
20260902102527 73 58 0.0 2.0 0.00 0.55 0.51 92 1017.8
20260902101527 73 45 1.0 2.0 0.00 0.55 0.51 92 1017.6
20260902100526 73 56 0.0 3.0 0.00 0.55 0.51 92 1017.7
20260902095527 73 38 0.0 2.0 0.00 0.55 0.51 92 1017.6
20260902094528 72 32 1.0 3.0 0.00 0.55 0.51 92 1017.5
20260902093527 72 35 1.0 3.0 0.00 0.55 0.51 92 1017.5
20260902092608 72 76 0.0 0.0 0.00 0.55 0.51 91 1017.5
20260902091547 72 29 0.0 2.0 0.00 0.55 0.51 91 1017.4
20260902090548 72 0.0 0.0 0.00 0.55 0.51 91 1017.3
20260902085548 72 40 0.0 1.0 0.00 0.55 0.51 91 1017.3
20260902084528 72 28 0.0 2.0 0.00 0.55 0.51 91 1017.2
20260902083528 72 29 0.0 2.0 0.00 0.55 0.51 91 1017.2
20260902082531 72 42 1.0 3.0 0.00 0.55 0.51 91 1017.1
20260902081549 73 10 0.0 2.0 0.00 0.55 0.51 91 1017.1
20260902080529 73 13 1.0 2.0 0.00 0.55 0.51 91 1016.9
20260902075549 73 56 0.0 1.0 0.00 0.55 0.51 91 1016.8
20260902074549 73 11 0.0 1.0 0.00 0.55 0.51 91 1016.7
20260902073529 73 0.0 0.0 0.00 0.55 0.51 91 1016.7
20260902072529 73 0.0 0.0 0.00 0.55 0.51 91 1016.6
20260902071614 73 216 0.0 1.0 0.00 0.55 0.51 91 1016.5
20260902031611 74 43 3.0 6.0 0.04 0.04 0.04 86 1017.8
20260902030517 76 41 2.0 7.0 0.03 0.03 0.03 85 1018.1
20260902025517 76 41 2.0 5.0 0.01 0.01 0.01 85 1017.9
20260902024516 77 233 1.0 4.0 0.01 0.01 0.01 82 1016.8
20260902023516 79 229 1.0 4.0 0.00 0.00 0.00 79 1016.4
20260902022517 80 220 1.0 3.0 0.00 0.00 0.00 77 1016.1
20260902021517 80 212 1.0 4.0 0.00 0.00 0.00 82 1016.2
20260902020517 80 309 0.0 0.0 0.00 0.00 0.00 83 1014.6
20260902015558 80 169 0.0 1.0 0.00 0.00 0.00 83 1014.4
20260902014537 80 235 0.0 1.0 0.00 0.00 0.00 83 1014.2
20260902013518 80 278 0.0 1.0 0.00 0.00 0.00 83 1014.4
20260902012518 80 327 0.0 1.0 0.00 0.00 0.00 84 1014.1
20260902011538 80 202 0.0 1.0 0.00 0.00 0.00 84 1013.8
20260902010518 80 333 0.0 0.0 0.00 0.00 0.00 84 1014.1
20260902005518 80 231 0.0 1.0 0.00 0.00 0.00 84 1014.1
20260902004518 80 0.0 0.0 0.00 0.00 0.00 84 1014.3
20260902003539 80 226 0.0 1.0 0.00 0.00 0.00 84 1014.3
20260902002516 80 341 0.0 1.0 0.00 0.00 0.00 84 1014.2
20260902001516 80 275 0.0 2.0 0.00 0.00 0.00 84 1013.6
20260902000516 80 0.0 0.0 0.00 0.00 0.00 84 1013.7
20260901235516 81 233 0.0 2.0 0.00 0.00 0.00 83 1013.8
20260901234517 81 220 0.0 1.0 0.00 0.00 0.00 83 1014.0
20260901233516 81 241 0.0 1.0 0.00 0.00 0.00 83 1014.2
20260901232517 81 0.0 0.0 0.00 0.00 0.00 82 1014.2
20260901231517 81 282 0.0 0.0 0.00 0.00 0.00 82 1014.1
20260901230517 82 214 0.0 2.0 0.00 0.00 0.00 81 1014.1
20260901225537 82 163 0.0 1.0 0.00 0.00 0.00 81 1014.2
20260901224517 82 159 0.0 1.0 0.00 0.00 0.00 81 1014.2
20260901223518 82 0.0 0.0 0.00 0.00 0.00 81 1014.2
20260901222518 82 219 0.0 1.0 0.00 0.00 0.00 81 1014.3
20260901221518 82 0.0 0.0 0.00 0.00 0.00 81 1014.5
20260901220518 83 223 0.0 3.0 0.00 0.00 0.00 80 1014.5
20260901215518 83 294 0.0 0.0 0.00 0.00 0.00 80 1014.5
20260901214519 83 200 0.0 1.0 0.00 0.00 0.00 80 1014.5
20260901213519 83 167 0.0 1.0 0.00 0.00 0.00 80 1014.6
20260901212519 83 3 0.0 2.0 0.00 0.00 0.00 80 1014.7
20260901211516 83 32 0.0 1.0 0.00 0.00 0.00 80 1014.6
20260901210556 82 203 0.0 3.0 0.00 0.00 0.00 81 1014.5
20260901205516 83 188 0.0 2.0 0.00 0.00 0.00 81 1014.5
20260901204516 83 193 0.0 3.0 0.00 0.00 0.00 80 1014.5
20260901203516 83 186 0.0 2.0 0.00 0.00 0.00 79 1014.6
20260901202517 83 194 0.0 2.0 0.00 0.00 0.00 79 1014.7
20260901201517 83 174 0.0 2.0 0.00 0.00 0.00 78 1014.8
20260901200537 84 190 0.0 2.0 0.00 0.00 0.00 78 1015.1
20260901195517 84 191 0.0 2.0 0.00 0.00 0.00 78 1015.3
20260901194517 85 200 0.0 3.0 0.00 0.00 0.00 76 1015.4
20260901193518 85 174 0.0 2.0 0.00 0.00 0.00 74 1015.3
20260901192518 85 177 0.0 2.0 0.00 0.00 0.00 74 1015.4
20260901191519 85 217 0.0 4.0 0.00 0.00 0.00 76 1015.2
20260901190518 84 210 0.0 3.0 0.00 0.00 0.00 76 1015.2
20260901185518 84 203 0.0 3.0 0.00 0.00 0.00 76 1015.3
20260901184516 84 201 0.0 3.0 0.00 0.00 0.00 77 1015.5
20260901183516 84 230 0.0 2.0 0.00 0.00 0.00 76 1015.5
20260901182519 85 330 0.0 2.0 0.00 0.00 0.00 74 1015.6
20260901181516 86 194 0.0 2.0 0.00 0.00 0.00 70 1015.6
20260901180516 88 192 1.0 3.0 0.00 0.00 0.00 67 1015.7
20260901175536 90 220 1.0 3.0 0.00 0.00 0.00 63 1015.8
20260901174517 94 250 1.0 5.0 0.00 0.00 0.00 57 1015.9
20260901173517 95 280 1.0 7.0 0.00 0.00 0.00 54 1015.9
20260901172517 95 273 3.0 8.0 0.00 0.00 0.00 53 1016.0
20260901171516 95 284 4.0 8.0 0.00 0.00 0.00 55 1016.1
20260901170517 94 281 3.0 9.0 0.00 0.00 0.00 55 1016.0
20260901165517 94 290 2.0 7.0 0.00 0.00 0.00 56 1016.1
20260901164518 93 262 2.0 5.0 0.00 0.00 0.00 58 1016.1
20260901163518 91 249 0.0 6.0 0.00 0.00 0.00 61 1016.2
20260901162518 89 267 0.0 3.0 0.00 0.00 0.00 64 1016.3
20260901161518 87 227 0.0 3.0 0.00 0.00 0.00 68 1016.5
20260901160538 85 217 0.0 3.0 0.00 0.00 0.00 72 1016.5
20260901155538 85 211 0.0 2.0 0.00 0.00 0.00 72 1016.5
20260901154518 86 192 0.0 2.0 0.00 0.00 0.00 71 1016.6
20260901153559 88 196 1.0 4.0 0.00 0.00 0.00 68 1016.7
20260901152519 91 198 0.0 4.0 0.00 0.00 0.00 64 1016.8
20260901151515 92 259 1.0 4.0 0.00 0.00 0.00 61 1016.7
20260901150536 92 255 2.0 4.0 0.00 0.00 0.00 61 1016.6
20260901145537 92 248 1.0 3.0 0.00 0.00 0.00 62 1016.7
20260901144537 92 243 1.0 5.0 0.00 0.00 0.00 62 1016.8
20260901143516 93 247 1.0 2.0 0.00 0.00 0.00 60 1016.9
20260901142516 92 245 0.0 2.0 0.00 0.00 0.00 60 1016.9
20260901141516 91 248 0.0 2.0 0.00 0.00 0.00 63 1017.0
20260901140517 92 238 0.0 2.0 0.00 0.00 0.00 62 1017.1
20260901135517 92 260 0.0 3.0 0.00 0.00 0.00 62 1017.3
20260901134558 90 293 0.0 4.0 0.00 0.00 0.00 64 1017.4
20260901133517 88 344 0.0 2.0 0.00 0.00 0.00 68 1017.3
20260901132517 84 56 0.0 2.0 0.00 0.00 0.00 75 1017.3
20260901131539 81 325 0.0 1.0 0.00 0.00 0.00 84 1017.3
20260901130518 80 290 0.0 0.0 0.00 0.00 0.00 89 1017.4
20260901125518 79 0.0 0.0 0.00 0.00 0.00 91 1017.4
20260901124518 78 180 0.0 1.0 0.00 0.00 0.00 91 1017.3
20260901123518 78 0.0 0.0 0.00 0.00 0.00 92 1017.4
20260901122538 77 0.0 0.0 0.00 0.00 0.00 92 1017.6
20260901121518 77 0.0 0.0 0.00 0.00 0.00 92 1017.7
20260901120539 77 0.0 0.0 0.00 0.00 0.00 92 1017.6
20260901115519 77 0.0 0.0 0.00 0.00 0.00 92 1017.5
20260901114519 77 0.0 0.0 0.00 0.00 0.00 92 1017.7
20260901113519 77 0.0 0.0 0.00 0.00 0.00 92 1017.5
20260901112519 76 0.0 0.0 0.00 0.00 0.00 92 1017.6
20260901111540 76 342 0.0 2.0 0.00 0.00 0.00 92 1017.4
20260901110520 76 0.0 0.0 0.00 0.00 0.00 92 1017.2
20260901105520 76 0.0 0.0 0.00 0.00 0.00 92 1017.1
20260901104520 76 0.0 0.0 0.00 0.00 0.00 92 1016.9